Regional Weather Roundup
Issued by NWS

Home | Current Version | Previous Version | Graphics & Text | Print | Product List | Glossary On
Versions: 1 2 3 4 5 6 7 8 9 10 11 12 13 14 15 16 17 18 19 20 21 22 23 24 25 26 27
000
ASUS45 KBOI 220210
RWRID

IDAHO REGIONAL WEATHER ROUNDUP
NATIONAL WEATHER SERVICE BOISE ID
800 PM MDT TUE MAR 21 2017

NOTE: "FAIR" INDICATES FEW OR NO CLOUDS BELOW 12000 FEET
WITH NO SIGNIFICANT WEATHER AND/OR OBSTRUCTIONS TO VISIBILITY

IDZ012-014-220300-
SOUTHWEST IDAHO


CITY           SKY/WX    TMP DP  RH WIND       PRES   REMARKS
BOISE          CLOUDY    48  43  82 N12       29.90R
CALDWELL       CLOUDY    49  45  86 N6        29.90R
MOUNTAIN HOME  LGT RAIN  53  53  99 N10       29.85R
$$

IDZ016-017-220300-
SOUTHCENTRAL IDAHO


CITY           SKY/WX    TMP DP  RH WIND       PRES   REMARKS
BURLEY         LGT RAIN  59  40  49 S20G35    29.82R
JEROME         CLOUDY    51  45  79 W22G30    29.87R
TWIN FALLS     CLOUDY    52  43  71 W18G28    29.87R
$$

IDZ019>023-220300-
SOUTHEAST IDAHO


CITY           SKY/WX    TMP DP  RH WIND       PRES   REMARKS
IDAHO FALLS    PTCLDY    60  33  36 E5        29.82S
POCATELLO      MOCLDY    63  33  32 S12       29.79F
REXBURG        MOCLDY    58  32  37 S6        29.83S
$$

IDZ006-010-011-018-031-032-220300-
CENTRAL IDAHO MOUNTAINS


CITY           SKY/WX    TMP DP  RH WIND       PRES   REMARKS
MCCALL         RAIN      38  36  92 S6        29.81R WCI  33
HAILEY         MOCLDY    48  36  61 W9        29.85R
STANLEY          N/A     38  36  92 E6        29.91R WCI  33
SALMON         PTCLDY    57  37  47 E7        29.73S
CHALLIS        LGT RAIN  51  38  60 W26       29.80R
$$

IDZ002-004-006-007-026-220300-
NORTHERN IDAHO


CITY           SKY/WX    TMP DP  RH WIND       PRES   REMARKS
LEWISTON       LGT RAIN  48  43  82 NE5       29.75F
LOWELL           N/A     45  42  89 N3        29.77F
COEUR D`ALENE  CLOUDY    44  36  73 N15G23    29.73S
MULLAN PASS    FOG       34  34 100 SE8       29.76F VSB<1/4 WCI  27
$$




USA.gov is the U.S. government's official web portal to all federal, state and local government web resources and services.